* Astronomy

Members Login
Username 
 
Password 
    Remember Me  
Post Info TOPIC: Asteroid 2011 WV95


L

Posts: 131433
Date:
Asteroid 2011 WV95
Permalink  
 


Orbital elements:
2011 WV95                                                Earth MOID = 0.0093 AU
Epoch 2011 Aug. 27.0 TT = JDT 2455800.5                 MPC
M 299.65595              (2000.0)            P               Q
n   0.41494006     Peri.   24.57669     -0.57143730     -0.81965761
a   1.7802424      Node   100.29775     +0.74599628     -0.53927485
e   0.4485914      Incl.    2.34511     +0.34197802     -0.19324605
P   2.38           H   24.0           G   0.15           U   8

MPEC 2011 - X06

The 42 - 93 metre wide asteroid 2011 WV95 will make a close pass (20.9 lunar distances, 0.0537 AU), travelling at 7.53 km/second, to the Earth-Moon system on the 29th December, 2011 @ 01:21 UT ±1 day 05:44.

See more

The Lunar Distance (LD), the distance between Earth and the Moon, equals 384,401 km, (or 0.00256 AU).



__________________
Page 1 of 1  sorted by
 
Quick Reply

Please log in to post quick replies.



Create your own FREE Forum
Report Abuse
Powered by ActiveBoard